| time (UTC) | temp C | wind direction | speed KPH | gust KPH | rain 1hr cm | rain 24hr cm | rain mn cm | humidity % | barometer mb |
| 20260510201029 | 23 | 171 | 4.8 | 11.3 | 0.00 | 0.00 | 0.00 | 17 | 1021.0 |
| 20260510200529 | 23 | 198 | 4.8 | 12.9 | 0.00 | 0.00 | 0.00 | 18 | 1021.0 |
| 20260510200030 | 22 | 310 | 1.6 | 9.7 | 0.00 | 0.00 | 0.00 | 16 | 1021.0 |
| 20260510195530 | 22 | 183 | 4.8 | 9.7 | 0.00 | 0.00 | 0.00 | 18 | 1021.0 |
| 20260510195030 | 22 | 114 | 6.4 | 12.9 | 0.00 | 0.00 | 0.00 | 17 | 1021.0 |
| 20260510194531 | 22 | 353 | 14.5 | 20.9 | 0.00 | 0.00 | 0.00 | 17 | 1021.0 |
| 20260510194031 | 22 | 143 | 14.5 | 29.0 | 0.00 | 0.00 | 0.00 | 16 | 1021.0 |
| 20260510193529 | 22 | 174 | 8.0 | 20.9 | 0.00 | 0.00 | 0.00 | 17 | 1021.0 |
| 20260510193032 | 22 | 158 | 9.7 | 14.5 | 0.00 | 0.00 | 0.00 | 16 | 1021.0 |
| 20260510192530 | 22 | 318 | 4.8 | 11.3 | 0.00 | 0.00 | 0.00 | 17 | 1021.0 |
| 20260510192031 | 22 | 336 | 9.7 | 14.5 | 0.00 | 0.00 | 0.00 | 15 | 1021.0 |
| 20260510191529 | 22 | 156 | 11.3 | 20.9 | 0.00 | 0.00 | 0.00 | 18 | 1022.0 |
| 20260510191030 | 22 | 167 | 6.4 | 17.7 | 0.00 | 0.00 | 0.00 | 19 | 1022.0 |
| 20260510190529 | 21 | 81 | 6.4 | 9.7 | 0.00 | 0.00 | 0.00 | 19 | 1022.0 |
| 20260510190029 | 21 | 149 | 8.0 | 16.1 | 0.00 | 0.00 | 0.00 | 17 | 1022.0 |
| 20260510185529 | 22 | 174 | 12.9 | 20.9 | 0.00 | 0.00 | 0.00 | 16 | 1022.0 |
| 20260510185029 | 22 | 328 | 6.4 | 12.9 | 0.00 | 0.00 | 0.00 | 19 | 1022.0 |
| 20260510184529 | 22 | 163 | 8.0 | 19.3 | 0.00 | 0.00 | 0.00 | 20 | 1022.0 |
| 20260510184030 | 22 | 328 | 6.4 | 12.9 | 0.00 | 0.00 | 0.00 | 17 | 1022.0 |
| 20260510183531 | 22 | 327 | 1.6 | 8.0 | 0.00 | 0.00 | 0.00 | 21 | 1022.0 |
| 20260510183029 | 21 | 182 | 3.2 | 9.7 | 0.00 | 0.00 | 0.00 | 24 | 1022.0 |
| 20260510182529 | 21 | 344 | 0.0 | 6.4 | 0.00 | 0.00 | 0.00 | 23 | 1022.0 |
| 20260510182029 | 21 | 155 | 4.8 | 8.0 | 0.00 | 0.00 | 0.00 | 22 | 1022.0 |
| 20260510181531 | 21 | 265 | 3.2 | 9.7 | 0.00 | 0.00 | 0.00 | 26 | 1022.0 |
| 20260510181030 | 21 | 187 | 3.2 | 9.7 | 0.00 | 0.00 | 0.00 | 25 | 1022.0 |
| 20260510180529 | 21 | 208 | 0.0 | 3.2 | 0.00 | 0.00 | 0.00 | 23 | 1022.0 |
| 20260510180030 | 20 | 202 | 1.6 | 8.0 | 0.00 | 0.00 | 0.00 | 26 | 1022.0 |
| 20260510175530 | 20 | 150 | 11.3 | 17.7 | 0.00 | 0.00 | 0.00 | 24 | 1022.0 |
| 20260510175030 | 20 | 340 | 4.8 | 12.9 | 0.00 | 0.00 | 0.00 | 22 | 1022.0 |
| 20260510174530 | 20 | 347 | 1.6 | 11.3 | 0.00 | 0.00 | 0.00 | 24 | 1023.0 |
| 20260510174029 | 20 | 149 | 9.7 | 17.7 | 0.00 | 0.00 | 0.00 | 23 | 1023.0 |
| 20260510173531 | 20 | 174 | 3.2 | 8.0 | 0.00 | 0.00 | 0.00 | 26 | 1023.0 |
| 20260510173031 | 20 | 126 | 6.4 | 12.9 | 0.00 | 0.00 | 0.00 | 25 | 1023.0 |
| 20260510172530 | 20 | 46 | 3.2 | 9.7 | 0.00 | 0.00 | 0.00 | 26 | 1023.0 |
| 20260510172029 | 20 | 69 | 6.4 | 12.9 | 0.00 | 0.00 | 0.00 | 26 | 1023.0 |
| 20260510171530 | 19 | 58 | 6.4 | 14.5 | 0.00 | 0.00 | 0.00 | 24 | 1023.0 |
| 20260510171030 | 18 | 355 | 4.8 | 12.9 | 0.00 | 0.00 | 0.00 | 29 | 1023.0 |
| 20260510170531 | 18 | 307 | 6.4 | 9.7 | 0.00 | 0.00 | 0.00 | 28 | 1023.0 |
| 20260510170032 | 18 | 7 | 6.4 | 11.3 | 0.00 | 0.00 | 0.00 | 30 | 1023.0 |
| 20260510165531 | 18 | 159 | 9.7 | 16.1 | 0.00 | 0.00 | 0.00 | 29 | 1023.0 |
| 20260510165031 | 18 | 150 | 8.0 | 14.5 | 0.00 | 0.00 | 0.00 | 29 | 1023.0 |
| 20260510164530 | 18 | 167 | 6.4 | 14.5 | 0.00 | 0.00 | 0.00 | 30 | 1023.0 |
| 20260510164029 | 18 | 314 | 3.2 | 8.0 | 0.00 | 0.00 | 0.00 | 29 | 1023.0 |
| 20260510163531 | 18 | 334 | 4.8 | 11.3 | 0.00 | 0.00 | 0.00 | 32 | 1023.0 |
| 20260510163029 | 18 | 235 | 4.8 | 6.4 | 0.00 | 0.00 | 0.00 | 29 | 1022.0 |
| 20260510162531 | 17 | 206 | 0.0 | 1.6 | 0.00 | 0.00 | 0.00 | 36 | 1023.0 |
| 20260510162029 | 17 | 158 | 0.0 | 0.0 | 0.00 | 0.00 | 0.00 | 33 | 1023.0 |
| 20260510161530 | 17 | 324 | 8.0 | 8.0 | 0.00 | 0.00 | 0.00 | 32 | 1023.0 |
| 20260510161030 | 17 | 331 | 0.0 | 0.0 | 0.00 | 0.00 | 0.00 | 34 | 1022.0 |
| 20260510160532 | 17 | 327 | 6.4 | 9.7 | 0.00 | 0.00 | 0.00 | 31 | 1022.0 |
| 20260510160031 | 17 | 323 | 3.2 | 6.4 | 0.00 | 0.00 | 0.00 | 33 | 1023.0 |
| 20260510155529 | 17 | 27 | 4.8 | 6.4 | 0.00 | 0.00 | 0.00 | 33 | 1022.0 |
| 20260510155032 | 17 | 145 | 6.4 | 11.3 | 0.00 | 0.00 | 0.00 | 32 | 1022.0 |
| 20260510154529 | 17 | 147 | 0.0 | 0.0 | 0.00 | 0.00 | 0.00 | 33 | 1023.0 |
| 20260510154030 | 17 | 320 | 3.2 | 6.4 | 0.00 | 0.00 | 0.00 | 31 | 1023.0 |
| 20260510153530 | 16 | 128 | 1.6 | 6.4 | 0.00 | 0.00 | 0.00 | 29 | 1023.0 |
| 20260510153031 | 16 | 61 | 1.6 | 4.8 | 0.00 | 0.00 | 0.00 | 29 | 1023.0 |
| 20260510152531 | 16 | 150 | 6.4 | 9.7 | 0.00 | 0.00 | 0.00 | 29 | 1023.0 |
| 20260510152030 | 16 | 116 | 1.6 | 6.4 | 0.00 | 0.00 | 0.00 | 30 | 1023.0 |
| 20260510151529 | 16 | 182 | 9.7 | 9.7 | 0.00 | 0.00 | 0.00 | 33 | 1023.0 |
| 20260510151029 | 16 | 144 | 6.4 | 9.7 | 0.00 | 0.00 | 0.00 | 31 | 1023.0 |
| 20260510150530 | 16 | 110 | 6.4 | 8.0 | 0.00 | 0.00 | 0.00 | 29 | 1023.0 |
| 20260510150029 | 16 | 22 | 0.0 | 1.6 | 0.00 | 0.00 | 0.00 | 31 | 1023.0 |
| 20260510145530 | 16 | 87 | 9.7 | 9.7 | 0.00 | 0.00 | 0.00 | 32 | 1023.0 |
| 20260510145029 | 16 | 110 | 3.2 | 6.4 | 0.00 | 0.00 | 0.00 | 35 | 1022.0 |
| 20260510144529 | 16 | 70 | 8.0 | 9.7 | 0.00 | 0.00 | 0.00 | 31 | 1022.0 |
| 20260510144029 | 16 | 79 | 8.0 | 12.9 | 0.00 | 0.00 | 0.00 | 30 | 1022.0 |
| 20260510143529 | 16 | 58 | 8.0 | 9.7 | 0.00 | 0.00 | 0.00 | 29 | 1022.0 |
| 20260510143030 | 15 | 358 | 0.0 | 1.6 | 0.00 | 0.00 | 0.00 | 33 | 1022.0 |
| 20260510142529 | 15 | 0 | 0.0 | 0.0 | 0.00 | 0.00 | 0.00 | 36 | 1022.0 |
| 20260510142029 | 16 | 43 | 3.2 | 3.2 | 0.00 | 0.00 | 0.00 | 32 | 1022.0 |
| 20260510141530 | 15 | 74 | 4.8 | 4.8 | 0.00 | 0.00 | 0.00 | 33 | 1022.0 |
| 20260510141029 | 15 | 67 | 4.8 | 6.4 | 0.00 | 0.00 | 0.00 | 33 | 1022.0 |
| 20260510140529 | 14 | 347 | 0.0 | 3.2 | 0.00 | 0.00 | 0.00 | 42 | 1022.0 |
| 20260510140029 | 13 | 339 | 1.6 | 6.4 | 0.00 | 0.00 | 0.00 | 47 | 1022.0 |
| 20260510135530 | 13 | 331 | 0.0 | 0.0 | 0.00 | 0.00 | 0.00 | 49 | 1022.0 |
| 20260510135030 | 13 | 331 | 4.8 | 6.4 | 0.00 | 0.00 | 0.00 | 48 | 1022.0 |
| 20260510134530 | 13 | 305 | 4.8 | 6.4 | 0.00 | 0.00 | 0.00 | 47 | 1022.0 |
| 20260510134029 | 13 | 0 | 0.0 | 0.0 | 0.00 | 0.00 | 0.00 | 42 | 1022.0 |
| 20260510133529 | 12 | 0 | 0.0 | 0.0 | 0.00 | 0.00 | 0.00 | 41 | 1022.0 |
| 20260510133029 | 12 | 0 | 0.0 | 0.0 | 0.00 | 0.00 | 0.00 | 43 | 1022.0 |
| 20260510132529 | 11 | 0 | 0.0 | 0.0 | 0.00 | 0.00 | 0.00 | 41 | 1022.0 |
| 20260510132029 | 11 | 0 | 0.0 | 1.6 | 0.00 | 0.00 | 0.00 | 41 | 1022.0 |
| 20260510131529 | 10 | 91 | 4.8 | 6.4 | 0.00 | 0.00 | 0.00 | 42 | 1022.0 |
| 20260510131029 | 9 | 24 | 1.6 | 3.2 | 0.00 | 0.00 | 0.00 | 45 | 1022.0 |
| 20260510130533 | 9 | 0 | 0.0 | 0.0 | 0.00 | 0.00 | 0.00 | 53 | 1022.0 |
| 20260510130031 | 9 | 59 | 0.0 | 0.0 | 0.00 | 0.00 | 0.00 | 56 | 1022.0 |
| 20260510125531 | 9 | 0 | 0.0 | 0.0 | 0.00 | 0.00 | 0.00 | 55 | 1022.0 |
| 20260510125029 | 9 | 0 | 0.0 | 0.0 | 0.00 | 0.00 | 0.00 | 50 | 1022.0 |
| 20260510124531 | 9 | 102 | 0.0 | 0.0 | 0.00 | 0.00 | 0.00 | 45 | 1021.0 |
| 20260510124031 | 10 | 0 | 0.0 | 0.0 | 0.00 | 0.00 | 0.00 | 46 | 1021.0 |
| 20260510123529 | 10 | 56 | 6.4 | 6.4 | 0.00 | 0.00 | 0.00 | 45 | 1021.0 |
| 20260510123030 | 10 | 64 | 6.4 | 6.4 | 0.00 | 0.00 | 0.00 | 44 | 1021.0 |
| 20260510122531 | 10 | 59 | 4.8 | 6.4 | 0.00 | 0.00 | 0.00 | 44 | 1021.0 |
| 20260510122029 | 10 | 70 | 1.6 | 6.4 | 0.00 | 0.00 | 0.00 | 43 | 1021.0 |
| 20260510121530 | 10 | 63 | 6.4 | 8.0 | 0.00 | 0.00 | 0.00 | 43 | 1021.0 |
| 20260510121029 | 10 | 86 | 0.0 | 1.6 | 0.00 | 0.00 | 0.00 | 41 | 1021.0 |
| 20260510120530 | 10 | 92 | 8.0 | 8.0 | 0.00 | 0.00 | 0.00 | 41 | 1021.0 |
| 20260510120031 | 10 | 69 | 8.0 | 8.0 | 0.00 | 0.00 | 0.00 | 39 | 1021.0 |
| 20260510115529 | 10 | 64 | 6.4 | 8.0 | 0.00 | 0.00 | 0.00 | 40 | 1021.0 |
| 20260510115029 | 9 | 77 | 4.8 | 6.4 | 0.00 | 0.00 | 0.00 | 39 | 1021.0 |
| 20260510114531 | 9 | 69 | 6.4 | 8.0 | 0.00 | 0.00 | 0.00 | 39 | 1021.0 |
| 20260510114031 | 8 | 43 | 4.8 | 9.7 | 0.00 | 0.00 | 0.00 | 43 | 1021.0 |
| 20260510113529 | 8 | 93 | 6.4 | 6.4 | 0.00 | 0.00 | 0.00 | 46 | 1021.0 |
| 20260510113029 | 8 | 60 | 8.0 | 11.3 | 0.00 | 0.00 | 0.00 | 46 | 1021.0 |
| 20260510112529 | 8 | 70 | 8.0 | 9.7 | 0.00 | 0.00 | 0.00 | 47 | 1021.0 |
| 20260510112031 | 8 | 92 | 6.4 | 6.4 | 0.00 | 0.00 | 0.00 | 49 | 1021.0 |
| 20260510111531 | 8 | 65 | 8.0 | 8.0 | 0.00 | 0.00 | 0.00 | 48 | 1021.0 |
| 20260510111033 | 8 | 90 | 6.4 | 8.0 | 0.00 | 0.00 | 0.00 | 50 | 1021.0 |
| 20260510110529 | 8 | 81 | 8.0 | 9.7 | 0.00 | 0.00 | 0.00 | 49 | 1021.0 |
| 20260510110030 | 9 | 127 | 6.4 | 11.3 | 0.00 | 0.00 | 0.00 | 47 | 1021.0 |
| 20260510105529 | 10 | 88 | 12.9 | 14.5 | 0.00 | 0.00 | 0.00 | 44 | 1021.0 |
| 20260510105030 | 10 | 85 | 0.0 | 3.2 | 0.00 | 0.00 | 0.00 | 41 | 1021.0 |
| 20260510104530 | 11 | 99 | 8.0 | 11.3 | 0.00 | 0.00 | 0.00 | 39 | 1021.0 |
| 20260510104029 | 11 | 104 | 9.7 | 11.3 | 0.00 | 0.00 | 0.00 | 36 | 1021.0 |
| 20260510103529 | 11 | 113 | 8.0 | 12.9 | 0.00 | 0.00 | 0.00 | 34 | 1021.0 |
| 20260510103030 | 11 | 73 | 11.3 | 16.1 | 0.00 | 0.00 | 0.00 | 34 | 1021.0 |
| 20260510102529 | 11 | 76 | 9.7 | 11.3 | 0.00 | 0.00 | 0.00 | 39 | 1021.0 |
| 20260510102029 | 10 | 73 | 6.4 | 8.0 | 0.00 | 0.00 | 0.00 | 42 | 1021.0 |
| 20260510101530 | 10 | 73 | 8.0 | 9.7 | 0.00 | 0.00 | 0.00 | 42 | 1021.0 |
| 20260510101029 | 10 | 70 | 6.4 | 6.4 | 0.00 | 0.00 | 0.00 | 40 | 1021.0 |
| 20260510100529 | 10 | 70 | 8.0 | 9.7 | 0.00 | 0.00 | 0.00 | 39 | 1021.0 |
| 20260510100029 | 10 | 67 | 6.4 | 8.0 | 0.00 | 0.00 | 0.00 | 38 | 1021.0 |
| 20260510095530 | 10 | 73 | 4.8 | 6.4 | 0.00 | 0.00 | 0.00 | 38 | 1021.0 |
| 20260510095029 | 10 | 89 | 1.6 | 6.4 | 0.00 | 0.00 | 0.00 | 37 | 1021.0 |
| 20260510094532 | 10 | 47 | 3.2 | 6.4 | 0.00 | 0.00 | 0.00 | 37 | 1021.0 |
| 20260510094029 | 10 | 43 | 3.2 | 4.8 | 0.00 | 0.00 | 0.00 | 37 | 1021.0 |
| 20260510093529 | 10 | 88 | 6.4 | 6.4 | 0.00 | 0.00 | 0.00 | 38 | 1020.0 |
| 20260510093029 | 10 | 72 | 8.0 | 9.7 | 0.00 | 0.00 | 0.00 | 37 | 1020.0 |
| 20260510092529 | 10 | 101 | 8.0 | 12.9 | 0.00 | 0.00 | 0.00 | 39 | 1020.0 |
| 20260510092030 | 10 | 72 | 3.2 | 6.4 | 0.00 | 0.00 | 0.00 | 39 | 1020.0 |
| 20260510091530 | 10 | 0 | 0.0 | 0.0 | 0.00 | 0.00 | 0.00 | 38 | 1020.0 |
| 20260510091029 | 10 | 16 | 0.0 | 1.6 | 0.00 | 0.00 | 0.00 | 37 | 1020.0 |
| 20260510090530 | 11 | 66 | 4.8 | 6.4 | 0.00 | 0.00 | 0.00 | 37 | 1020.0 |
| 20260510090029 | 11 | 93 | 8.0 | 8.0 | 0.00 | 0.00 | 0.00 | 36 | 1020.0 |
| 20260510085529 | 11 | 103 | 8.0 | 9.7 | 0.00 | 0.00 | 0.00 | 35 | 1020.0 |
| 20260510085029 | 11 | 102 | 4.8 | 6.4 | 0.00 | 0.00 | 0.00 | 32 | 1020.0 |
| 20260510084529 | 12 | 33 | 4.8 | 6.4 | 0.00 | 0.00 | 0.00 | 31 | 1020.0 |
| 20260510084029 | 12 | 34 | 3.2 | 8.0 | 0.00 | 0.00 | 0.00 | 28 | 1020.0 |
| 20260510083529 | 11 | 91 | 6.4 | 8.0 | 0.00 | 0.00 | 0.00 | 29 | 1020.0 |
| 20260510083031 | 10 | 56 | 12.9 | 12.9 | 0.00 | 0.00 | 0.00 | 32 | 1020.0 |
| 20260510082529 | 10 | 55 | 8.0 | 11.3 | 0.00 | 0.00 | 0.00 | 37 | 1020.0 |
| 20260510082031 | 10 | 65 | 8.0 | 9.7 | 0.00 | 0.00 | 0.00 | 40 | 1020.0 |
| 20260510081530 | 10 | 89 | 6.4 | 6.4 | 0.00 | 0.00 | 0.00 | 39 | 1020.0 |
| 20260510081029 | 9 | 92 | 4.8 | 9.7 | 0.00 | 0.00 | 0.00 | 39 | 1020.0 |
| 20260510080530 | 10 | 50 | 4.8 | 4.8 | 0.00 | 0.00 | 0.00 | 40 | 1020.0 |
| 20260510080030 | 10 | 13 | 1.6 | 1.6 | 0.00 | 0.00 | 0.00 | 42 | 1020.0 |
| 20260510075529 | 10 | 0 | 0.0 | 0.0 | 0.00 | 0.00 | 0.00 | 42 | 1020.0 |
| 20260510075029 | 10 | 65 | 1.6 | 4.8 | 0.00 | 0.00 | 0.00 | 40 | 1020.0 |
| 20260510074529 | 11 | 20 | 0.0 | 0.0 | 0.00 | 0.00 | 0.00 | 40 | 1020.0 |
| 20260510074030 | 11 | 91 | 3.2 | 6.4 | 0.00 | 0.00 | 0.00 | 36 | 1020.0 |
| 20260510073529 | 11 | 104 | 6.4 | 8.0 | 0.00 | 0.00 | 0.00 | 37 | 1020.0 |
| 20260510073029 | 11 | 0 | 0.0 | 0.0 | 0.00 | 0.00 | 0.00 | 34 | 1020.0 |
| 20260510072529 | 11 | 68 | 1.6 | 4.8 | 0.00 | 0.00 | 0.00 | 33 | 1020.0 |
| 20260510072029 | 11 | 93 | 6.4 | 6.4 | 0.00 | 0.00 | 0.00 | 32 | 1020.0 |
| 20260510071530 | 11 | 88 | 6.4 | 12.9 | 0.00 | 0.00 | 0.00 | 34 | 1020.0 |
| 20260510071031 | 11 | 93 | 6.4 | 9.7 | 0.00 | 0.00 | 0.00 | 35 | 1020.0 |
| 20260510070530 | 11 | 104 | 6.4 | 8.0 | 0.00 | 0.00 | 0.00 | 35 | 1020.0 |
| 20260510070030 | 11 | 91 | 6.4 | 8.0 | 0.00 | 0.00 | 0.00 | 40 | 1020.0 |
| 20260510065530 | 11 | 101 | 8.0 | 9.7 | 0.00 | 0.00 | 0.00 | 35 | 1020.0 |
| 20260510065029 | 11 | 74 | 0.0 | 1.6 | 0.00 | 0.00 | 0.00 | 39 | 1020.0 |
| 20260510064529 | 11 | 99 | 0.0 | 0.0 | 0.00 | 0.00 | 0.00 | 35 | 1019.0 |
| 20260510064030 | 11 | 102 | 8.0 | 9.7 | 0.00 | 0.00 | 0.00 | 35 | 1019.0 |
| 20260510063530 | 11 | 48 | 3.2 | 3.2 | 0.00 | 0.00 | 0.00 | 36 | 1019.0 |
| 20260510063029 | 11 | 28 | 6.4 | 8.0 | 0.00 | 0.00 | 0.00 | 35 | 1019.0 |
| 20260510062529 | 11 | 92 | 8.0 | 8.0 | 0.00 | 0.00 | 0.00 | 36 | 1019.0 |
| 20260510062030 | 11 | 98 | 0.0 | 0.0 | 0.00 | 0.00 | 0.00 | 34 | 1019.0 |
| 20260510061529 | 11 | 67 | 4.8 | 4.8 | 0.00 | 0.00 | 0.00 | 34 | 1019.0 |
| 20260510061029 | 11 | 96 | 8.0 | 8.0 | 0.00 | 0.00 | 0.00 | 33 | 1019.0 |
| 20260510060530 | 11 | 92 | 9.7 | 9.7 | 0.00 | 0.00 | 0.00 | 33 | 1019.0 |
| 20260510060029 | 12 | 101 | 6.4 | 6.4 | 0.00 | 0.00 | 0.00 | 30 | 1019.0 |
| 20260510055529 | 12 | 75 | 0.0 | 3.2 | 0.00 | 0.00 | 0.00 | 32 | 1019.0 |
| 20260510055029 | 12 | 0 | 0.0 | 0.0 | 0.00 | 0.00 | 0.00 | 28 | 1019.0 |
| 20260510054529 | 12 | 71 | 3.2 | 4.8 | 0.00 | 0.00 | 0.00 | 29 | 1019.0 |
| 20260510054030 | 12 | 0 | 0.0 | 0.0 | 0.00 | 0.00 | 0.00 | 28 | 1019.0 |
| 20260510053529 | 12 | 30 | 0.0 | 1.6 | 0.00 | 0.00 | 0.00 | 28 | 1019.0 |
| 20260510053030 | 12 | 0 | 0.0 | 0.0 | 0.00 | 0.00 | 0.00 | 29 | 1019.0 |
| 20260510052529 | 13 | 44 | 0.0 | 0.0 | 0.00 | 0.00 | 0.00 | 30 | 1019.0 |
| 20260510052030 | 13 | 58 | 1.6 | 4.8 | 0.00 | 0.00 | 0.00 | 31 | 1019.0 |
| 20260510051529 | 13 | 0 | 0.0 | 0.0 | 0.00 | 0.00 | 0.00 | 24 | 1019.0 |
| 20260510051029 | 13 | 0 | 0.0 | 0.0 | 0.00 | 0.00 | 0.00 | 23 | 1019.0 |
| 20260510050529 | 13 | 28 | 3.2 | 6.4 | 0.00 | 0.00 | 0.00 | 23 | 1019.0 |
| 20260510050029 | 13 | 18 | 6.4 | 8.0 | 0.00 | 0.00 | 0.00 | 23 | 1018.0 |
| 20260510045529 | 13 | 24 | 1.6 | 3.2 | 0.00 | 0.00 | 0.00 | 23 | 1018.0 |
| 20260510045029 | 13 | 23 | 4.8 | 6.4 | 0.00 | 0.00 | 0.00 | 23 | 1018.0 |
| 20260510044529 | 13 | 0 | 0.0 | 0.0 | 0.00 | 0.00 | 0.00 | 22 | 1018.0 |
| 20260510044029 | 13 | 0 | 0.0 | 0.0 | 0.00 | 0.00 | 0.00 | 24 | 1018.0 |
| 20260510043529 | 13 | 98 | 4.8 | 4.8 | 0.00 | 0.00 | 0.00 | 23 | 1018.0 |
| 20260510043029 | 13 | 58 | 1.6 | 4.8 | 0.00 | 0.00 | 0.00 | 25 | 1018.0 |
| 20260510042529 | 13 | 0 | 0.0 | 0.0 | 0.00 | 0.00 | 0.00 | 29 | 1018.0 |
| 20260510042029 | 14 | 0 | 0.0 | 0.0 | 0.00 | 0.00 | 0.00 | 25 | 1018.0 |
| 20260510041530 | 14 | 0 | 0.0 | 0.0 | 0.00 | 0.00 | 0.00 | 22 | 1018.0 |
| 20260510041031 | 14 | 0 | 0.0 | 0.0 | 0.00 | 0.00 | 0.00 | 21 | 1018.0 |
| 20260510040529 | 15 | 0 | 0.0 | 0.0 | 0.00 | 0.00 | 0.00 | 23 | 1018.0 |
| 20260510040031 | 15 | 0 | 0.0 | 0.0 | 0.00 | 0.00 | 0.00 | 22 | 1018.0 |
| 20260510035529 | 15 | 0 | 0.0 | 0.0 | 0.00 | 0.00 | 0.00 | 21 | 1018.0 |
| 20260510035029 | 15 | 0 | 0.0 | 0.0 | 0.00 | 0.00 | 0.00 | 20 | 1018.0 |
| 20260510034530 | 15 | 2 | 3.2 | 6.4 | 0.00 | 0.00 | 0.00 | 22 | 1018.0 |
| 20260510034029 | 15 | 20 | 6.4 | 8.0 | 0.00 | 0.00 | 0.00 | 20 | 1018.0 |
| 20260510033530 | 15 | 30 | 4.8 | 6.4 | 0.00 | 0.00 | 0.00 | 20 | 1018.0 |
| 20260510033029 | 15 | 27 | 3.2 | 6.4 | 0.00 | 0.00 | 0.00 | 20 | 1018.0 |
| 20260510032530 | 15 | 44 | 4.8 | 6.4 | 0.00 | 0.00 | 0.00 | 19 | 1018.0 |
| 20260510032031 | 16 | 59 | 4.8 | 4.8 | 0.00 | 0.00 | 0.00 | 18 | 1017.0 |
| 20260510031532 | 16 | 52 | 4.8 | 4.8 | 0.00 | 0.00 | 0.00 | 20 | 1017.0 |
| 20260510031029 | 16 | 7 | 1.6 | 1.6 | 0.00 | 0.00 | 0.00 | 19 | 1017.0 |
| 20260510030531 | 17 | 47 | 0.0 | 3.2 | 0.00 | 0.00 | 0.00 | 18 | 1017.0 |
| 20260510030031 | 17 | 353 | 4.8 | 9.7 | 0.00 | 0.00 | 0.00 | 16 | 1017.0 |
| 20260510025529 | 17 | 331 | 3.2 | 8.0 | 0.00 | 0.00 | 0.00 | 16 | 1017.0 |
| 20260510025029 | 17 | 325 | 1.6 | 8.0 | 0.00 | 0.00 | 0.00 | 15 | 1017.0 |
| 20260510024529 | 17 | 350 | 1.6 | 6.4 | 0.00 | 0.00 | 0.00 | 16 | 1017.0 |
| 20260510024029 | 18 | 333 | 4.8 | 8.0 | 0.00 | 0.00 | 0.00 | 15 | 1017.0 |
| 20260510023529 | 18 | 336 | 8.0 | 14.5 | 0.00 | 0.00 | 0.00 | 14 | 1017.0 |
| 20260510023030 | 18 | 328 | 11.3 | 16.1 | 0.00 | 0.00 | 0.00 | 13 | 1017.0 |
| 20260510022529 | 19 | 332 | 12.9 | 17.7 | 0.00 | 0.00 | 0.00 | 14 | 1017.0 |
| 20260510022031 | 20 | 333 | 11.3 | 14.5 | 0.00 | 0.00 | 0.00 | 13 | 1017.0 |
| 20260510021529 | 20 | 339 | 12.9 | 17.7 | 0.00 | 0.00 | 0.00 | 13 | 1017.0 |
| 20260510021031 | 21 | 357 | 12.9 | 16.1 | 0.00 | 0.00 | 0.00 | 12 | 1017.0 |
| 20260510020530 | 21 | 349 | 9.7 | 14.5 | 0.00 | 0.00 | 0.00 | 11 | 1017.0 |
| 20260510020029 | 21 | 357 | 8.0 | 11.3 | 0.00 | 0.00 | 0.00 | 11 | 1017.0 |
| 20260510015531 | 21 | 340 | 6.4 | 14.5 | 0.00 | 0.00 | 0.00 | 11 | 1017.0 |
| 20260510015029 | 21 | 345 | 12.9 | 29.0 | 0.00 | 0.00 | 0.00 | 10 | 1017.0 |
| 20260510014530 | 21 | 345 | 8.0 | 12.9 | 0.00 | 0.00 | 0.00 | 11 | 1017.0 |
| 20260510014029 | 22 | 33 | 9.7 | 19.3 | 0.00 | 0.00 | 0.00 | 10 | 1017.0 |
| 20260510013529 | 22 | 357 | 14.5 | 20.9 | 0.00 | 0.00 | 0.00 | 10 | 1017.0 |
| 20260510013030 | 22 | 343 | 11.3 | 17.7 | 0.00 | 0.00 | 0.00 | 11 | 1017.0 |
| 20260510012529 | 22 | 345 | 9.7 | 16.1 | 0.00 | 0.00 | 0.00 | 12 | 1017.0 |
| 20260510012030 | 22 | 303 | 8.0 | 14.5 | 0.00 | 0.00 | 0.00 | 11 | 1017.0 |
| 20260510011529 | 22 | 319 | 6.4 | 12.9 | 0.00 | 0.00 | 0.00 | 10 | 1017.0 |
| 20260510011030 | 22 | 317 | 4.8 | 11.3 | 0.00 | 0.00 | 0.00 | 11 | 1017.0 |
| 20260510010529 | 22 | 332 | 12.9 | 20.9 | 0.00 | 0.00 | 0.00 | 10 | 1017.0 |
| 20260510010030 | 22 | 337 | 11.3 | 19.3 | 0.00 | 0.00 | 0.00 | 11 | 1017.0 |
| 20260510005529 | 22 | 351 | 14.5 | 29.0 | 0.00 | 0.00 | 0.00 | 11 | 1017.0 |
| 20260510005030 | 22 | 331 | 12.9 | 22.5 | 0.00 | 0.00 | 0.00 | 10 | 1017.0 |
| 20260510004529 | 22 | 325 | 14.5 | 25.7 | 0.00 | 0.00 | 0.00 | 11 | 1017.0 |
| 20260510004030 | 22 | 335 | 12.9 | 25.7 | 0.00 | 0.00 | 0.00 | 10 | 1017.0 |
| 20260510003529 | 22 | 332 | 14.5 | 27.4 | 0.00 | 0.00 | 0.00 | 12 | 1017.0 |
| 20260510003031 | 22 | 313 | 12.9 | 29.0 | 0.00 | 0.00 | 0.00 | 12 | 1017.0 |
| 20260510002529 | 22 | 14 | 9.7 | 22.5 | 0.00 | 0.00 | 0.00 | 12 | 1017.0 |
| 20260510002030 | 22 | 340 | 14.5 | 29.0 | 0.00 | 0.00 | 0.00 | 10 | 1017.0 |
| 20260510001530 | 22 | 316 | 14.5 | 20.9 | 0.00 | 0.00 | 0.00 | 11 | 1017.0 |
| 20260510001029 | 21 | 295 | 17.7 | 25.7 | 0.00 | 0.00 | 0.00 | 10 | 1017.0 |
| 20260510000529 | 22 | 293 | 20.9 | 35.4 | 0.00 | 0.00 | 0.00 | 11 | 1017.0 |
| 20260510000030 | 22 | 298 | 19.3 | 25.7 | 0.00 | 0.00 | 0.00 | 11 | 1017.0 |
| 20260509235529 | 21 | 297 | 17.7 | 33.8 | 0.00 | 0.00 | 0.00 | 10 | 1017.0 |
| 20260509235029 | 21 | 351 | 16.1 | 30.6 | 0.00 | 0.00 | 0.00 | 10 | 1017.0 |
| 20260509234530 | 21 | 316 | 14.5 | 22.5 | 0.00 | 0.00 | 0.00 | 9 | 1017.0 |
| 20260509234030 | 21 | 320 | 17.7 | 38.6 | 0.00 | 0.00 | 0.00 | 9 | 1017.0 |
| 20260509233530 | 21 | 298 | 20.9 | 32.2 | 0.00 | 0.00 | 0.00 | 8 | 1017.0 |
| 20260509233031 | 21 | 309 | 19.3 | 32.2 | 0.00 | 0.00 | 0.00 | 10 | 1017.0 |
| 20260509232531 | 21 | 329 | 19.3 | 27.4 | 0.00 | 0.00 | 0.00 | 11 | 1017.0 |
| 20260509232030 | 22 | 297 | 16.1 | 25.7 | 0.00 | 0.00 | 0.00 | 13 | 1017.0 |
| 20260509231531 | 22 | 319 | 11.3 | 19.3 | 0.00 | 0.00 | 0.00 | 13 | 1017.0 |
| 20260509231030 | 22 | 333 | 17.7 | 29.0 | 0.00 | 0.00 | 0.00 | 11 | 1017.0 |
| 20260509230530 | 22 | 304 | 12.9 | 19.3 | 0.00 | 0.00 | 0.00 | 14 | 1017.0 |
| 20260509230031 | 22 | 21 | 20.9 | 27.4 | 0.00 | 0.00 | 0.00 | 13 | 1017.0 |
| 20260509225529 | 21 | 323 | 14.5 | 32.2 | 0.00 | 0.00 | 0.00 | 13 | 1017.0 |
| 20260509225029 | 21 | 294 | 27.4 | 38.6 | 0.00 | 0.00 | 0.00 | 14 | 1017.0 |
| 20260509224529 | 21 | 297 | 16.1 | 29.0 | 0.00 | 0.00 | 0.00 | 14 | 1017.0 |
| 20260509224029 | 21 | 331 | 24.1 | 40.2 | 0.00 | 0.00 | 0.00 | 14 | 1017.0 |
| 20260509223530 | 21 | 323 | 12.9 | 24.1 | 0.00 | 0.00 | 0.00 | 15 | 1017.0 |
| 20260509223030 | 21 | 293 | 20.9 | 43.5 | 0.00 | 0.00 | 0.00 | 15 | 1017.0 |
| 20260509222530 | 21 | 338 | 19.3 | 27.4 | 0.00 | 0.00 | 0.00 | 15 | 1017.0 |
| 20260509222035 | 21 | 329 | 22.5 | 33.8 | 0.00 | 0.00 | 0.00 | 14 | 1017.0 |
| 20260509221530 | 22 | 318 | 17.7 | 37.0 | 0.00 | 0.00 | 0.00 | 15 | 1017.0 |
| 20260509221030 | 22 | 305 | 14.5 | 24.1 | 0.00 | 0.00 | 0.00 | 14 | 1017.0 |
| 20260509220530 | 22 | 326 | 17.7 | 27.4 | 0.00 | 0.00 | 0.00 | 16 | 1017.0 |
| 20260509220029 | 22 | 336 | 19.3 | 25.7 | 0.00 | 0.00 | 0.00 | 16 | 1017.0 |
| 20260509215529 | 21 | 319 | 12.9 | 19.3 | 0.00 | 0.00 | 0.00 | 17 | 1017.0 |
| 20260509215029 | 21 | 316 | 14.5 | 32.2 | 0.00 | 0.00 | 0.00 | 17 | 1017.0 |
| 20260509214530 | 21 | 296 | 20.9 | 32.2 | 0.00 | 0.00 | 0.00 | 18 | 1017.0 |
| 20260509214029 | 21 | 335 | 20.9 | 35.4 | 0.00 | 0.00 | 0.00 | 18 | 1017.0 |
| 20260509213530 | 21 | 301 | 11.3 | 27.4 | 0.00 | 0.00 | 0.00 | 17 | 1017.0 |
| 20260509213031 | 21 | 325 | 14.5 | 30.6 | 0.00 | 0.00 | 0.00 | 17 | 1017.0 |
| 20260509212529 | 21 | 297 | 14.5 | 25.7 | 0.00 | 0.00 | 0.00 | 17 | 1017.0 |
| 20260509212029 | 21 | 320 | 12.9 | 25.7 | 0.00 | 0.00 | 0.00 | 17 | 1017.0 |
| 20260509211529 | 21 | 327 | 20.9 | 37.0 | 0.00 | 0.00 | 0.00 | 17 | 1017.0 |
| 20260509211029 | 21 | 313 | 11.3 | 22.5 | 0.00 | 0.00 | 0.00 | 17 | 1017.0 |
| 20260509210529 | 21 | 318 | 16.1 | 29.0 | 0.00 | 0.00 | 0.00 | 17 | 1017.0 |
| 20260509205531 | 21 | 34 | 19.3 | 27.4 | 0.00 | 0.00 | 0.00 | 17 | 1017.0 |
| 20260509205031 | 21 | 324 | 14.5 | 27.4 | 0.00 | 0.00 | 0.00 | 19 | 1018.0 |
| 20260509204530 | 21 | 313 | 11.3 | 19.3 | 0.00 | 0.00 | 0.00 | 17 | 1018.0 |
| 20260509204031 | 21 | 294 | 17.7 | 27.4 | 0.00 | 0.00 | 0.00 | 18 | 1018.0 |
| 20260509203529 | 21 | 291 | 14.5 | 27.4 | 0.00 | 0.00 | 0.00 | 18 | 1018.0 |
| 20260509203029 | 21 | 314 | 20.9 | 32.2 | 0.00 | 0.00 | 0.00 | 17 | 1018.0 |
| 20260509202529 | 21 | 340 | 11.3 | 20.9 | 0.00 | 0.00 | 0.00 | 16 | 1018.0 |
| 20260509202029 | 21 | 328 | 14.5 | 27.4 | 0.00 | 0.00 | 0.00 | 17 | 1018.0 |
| 20260509201529 | 21 | 326 | 20.9 | 35.4 | 0.00 | 0.00 | 0.00 | 18 | 1018.0 |